Time,TemperatureF,DewpointF,PressureIn,WindDirection,WindDirectionDegrees,WindSpeedMPH,WindSpeedGustMPH,Humidity,HourlyPrecipIn,Conditions,Clouds,dailyrainin,SoftwareType,DateUTC
2013-01-02 00:00:00,7.0,2.0,30.20,WNW,298,0.0,2.0,81,0.00,,,0.00,weatherlink.com 1.10,2013-01-02 06:00:00,
2013-01-02 00:15:00,7.9,3.0,30.21,West,270,0.0,2.0,80,0.00,,,0.00,weatherlink.com 1.10,2013-01-02 06:15:00,
2013-01-02 00:30:00,8.5,4.0,30.21,West,259,0.0,3.0,80,0.00,,,0.00,weatherlink.com 1.10,2013-01-02 06:30:00,
2013-01-02 00:45:00,9.0,4.0,30.21,WSW,258,0.0,2.0,80,0.00,,,0.00,weatherlink.com 1.10,2013-01-02 06:45:00,
2013-01-02 01:00:00,9.4,4.0,30.21,SW,220,0.0,3.0,79,0.00,,,0.00,weatherlink.com 1.10,2013-01-02 07:00:00,
2013-01-02 01:15:00,9.8,5.0,30.20,SW,223,0.0,1.0,79,0.00,,,0.00,weatherlink.com 1.10,2013-01-02 07:15:00,
2013-01-02 01:30:00,10.0,5.0,30.21,SW,223,1.0,3.0,79,0.00,,,0.00,weatherlink.com 1.10,2013-01-02 07:30:00,
2013-01-02 01:45:00,10.2,5.0,30.21,SW,223,0.0,3.0,78,0.00,,,0.00,weatherlink.com 1.10,2013-01-02 07:45:00,
2013-01-02 02:00:00,10.3,5.0,30.22,SW,223,0.0,3.0,79,0.00,,,0.00,weatherlink.com 1.10,2013-01-02 08:00:00,
2013-01-02 02:15:00,10.3,5.0,30.23,SW,223,0.0,2.0,78,0.00,,,0.00,weatherlink.com 1.10,2013-01-02 08:15:00,
2013-01-02 02:30:00,10.4,5.0,30.23,SW,223,0.0,2.0,79,0.00,,,0.00,weatherlink.com 1.10,2013-01-02 08:30:00,
2013-01-02 02:45:00,10.4,5.0,30.23,SW,222,3.0,3.0,79,0.00,,,0.00,weatherlink.com 1.10,2013-01-02 08:45:00,
2013-01-02 03:00:00,10.5,6.0,30.23,SW,215,0.0,3.0,80,0.00,,,0.00,weatherlink.com 1.10,2013-01-02 09:00:00,
2013-01-02 03:15:00,10.8,6.0,30.23,SW,215,0.0,2.0,81,0.00,,,0.00,weatherlink.com 1.10,2013-01-02 09:15:00,
2013-01-02 03:30:00,11.1,6.0,30.22,SW,215,0.0,1.0,81,0.00,,,0.00,weatherlink.com 1.10,2013-01-02 09:30:00,
2013-01-02 03:45:00,11.4,7.0,30.22,SW,215,1.0,3.0,81,0.00,,,0.00,weatherlink.com 1.10,2013-01-02 09:45:00,
2013-01-02 04:00:00,11.6,7.0,30.22,SW,215,0.0,1.0,82,0.00,,,0.00,weatherlink.com 1.10,2013-01-02 10:00:00,
2013-01-02 04:15:00,11.7,8.0,30.22,SW,215,0.0,0.0,83,0.00,,,0.00,weatherlink.com 1.10,2013-01-02 10:15:00,
2013-01-02 04:30:00,11.9,8.0,30.21,SW,215,0.0,1.0,83,0.00,,,0.00,weatherlink.com 1.10,2013-01-02 10:30:00,
2013-01-02 04:45:00,12.1,8.0,30.21,SW,215,0.0,1.0,83,0.00,,,0.00,weatherlink.com 1.10,2013-01-02 10:45:00,
2013-01-02 05:00:00,12.5,9.0,30.21,SW,215,0.0,1.0,84,0.00,,,0.00,weatherlink.com 1.10,2013-01-02 11:00:00,
2013-01-02 05:15:00,12.8,9.0,30.22,SW,215,0.0,1.0,84,0.00,,,0.00,weatherlink.com 1.10,2013-01-02 11:15:00,
2013-01-02 05:30:00,13.1,9.0,30.21,SW,215,0.0,2.0,84,0.00,,,0.00,weatherlink.com 1.10,2013-01-02 11:30:00,
2013-01-02 05:45:00,13.3,10.0,30.21,SW,215,0.0,2.0,85,0.00,,,0.00,weatherlink.com 1.10,2013-01-02 11:45:00,
2013-01-02 06:00:00,13.5,10.0,30.22,SW,215,0.0,2.0,85,0.00,,,0.00,weatherlink.com 1.10,2013-01-02 12:00:00,
2013-01-02 06:15:00,13.8,10.0,30.22,SW,215,0.0,1.0,86,0.00,,,0.00,weatherlink.com 1.10,2013-01-02 12:15:00,
2013-01-02 06:30:00,14.0,10.0,30.22,SW,215,0.0,1.0,85,0.00,,,0.00,weatherlink.com 1.10,2013-01-02 12:30:00,
2013-01-02 06:45:00,14.1,11.0,30.22,SW,215,0.0,2.0,86,0.00,,,0.00,weatherlink.com 1.10,2013-01-02 12:45:00,
2013-01-02 07:00:00,14.4,11.0,30.22,SW,215,1.0,2.0,86,0.00,,,0.00,weatherlink.com 1.10,2013-01-02 13:00:00,
2013-01-02 07:15:00,14.6,11.0,30.22,SW,215,1.0,2.0,87,0.00,,,0.00,weatherlink.com 1.10,2013-01-02 13:15:00,
2013-01-02 07:30:00,14.9,12.0,30.23,SW,215,0.0,2.0,87,0.00,,,0.00,weatherlink.com 1.10,2013-01-02 13:30:00,
2013-01-02 07:45:00,15.1,12.0,30.23,SW,215,1.0,2.0,87,0.00,,,0.00,weatherlink.com 1.10,2013-01-02 13:45:00,
2013-01-02 08:00:00,15.4,12.0,30.23,SW,215,0.0,2.0,87,0.00,,,0.00,weatherlink.com 1.10,2013-01-02 14:00:00,
2013-01-02 08:15:00,15.7,13.0,30.23,SW,215,1.0,2.0,87,0.00,,,0.00,weatherlink.com 1.10,2013-01-02 14:15:00,
2013-01-02 08:30:00,16.1,13.0,30.23,SW,215,0.0,3.0,87,0.00,,,0.00,weatherlink.com 1.10,2013-01-02 14:30:00,
2013-01-02 08:45:00,16.4,13.0,30.22,SW,215,2.0,2.0,87,0.00,,,0.00,weatherlink.com 1.10,2013-01-02 14:45:00,
2013-01-02 09:01:00,16.9,13.0,30.23,SW,215,1.0,3.0,86,0.00,,,0.00,weatherlink.com 1.10,2013-01-02 15:01:00,
2013-01-02 09:16:00,17.3,14.0,30.23,SW,215,0.0,2.0,86,0.00,,,0.00,weatherlink.com 1.10,2013-01-02 15:16:00,
2013-01-02 09:31:00,17.9,14.0,30.23,SW,215,1.0,3.0,86,0.00,,,0.00,weatherlink.com 1.10,2013-01-02 15:31:00,
2013-01-02 09:46:00,18.6,15.0,30.23,SW,215,0.0,2.0,84,0.00,,,0.00,weatherlink.com 1.10,2013-01-02 15:46:00,
2013-01-02 10:01:00,19.1,15.0,30.23,SW,215,0.0,2.0,83,0.00,,,0.00,weatherlink.com 1.10,2013-01-02 16:01:00,
2013-01-02 10:16:00,19.5,15.0,30.23,SSW,201,1.0,5.0,81,0.00,,,0.00,weatherlink.com 1.10,2013-01-02 16:16:00,
2013-01-02 10:31:00,20.1,15.0,30.22,SW,223,1.0,2.0,79,0.00,,,0.00,weatherlink.com 1.10,2013-01-02 16:31:00,
2013-01-02 10:46:00,20.9,15.0,30.21,SSW,211,2.0,2.0,78,0.00,,,0.00,weatherlink.com 1.10,2013-01-02 16:46:00,
2013-01-02 11:01:00,20.9,15.0,30.21,SSW,202,2.0,5.0,77,0.00,,,0.00,weatherlink.com 1.10,2013-01-02 17:01:00,
2013-01-02 11:16:00,21.1,14.0,30.20,SSW,204,2.0,5.0,74,0.00,,,0.00,weatherlink.com 1.10,2013-01-02 17:16:00,
2013-01-02 11:31:00,21.4,14.0,30.19,SW,215,5.0,7.0,74,0.00,,,0.00,weatherlink.com 1.10,2013-01-02 17:31:00,
2013-01-02 11:46:00,21.7,14.0,30.19,South,177,3.0,7.0,72,0.00,,,0.00,weatherlink.com 1.10,2013-01-02 17:46:00,
2013-01-02 12:01:00,21.8,14.0,30.17,South,178,4.0,7.0,71,0.00,,,0.00,weatherlink.com 1.10,2013-01-02 18:01:00,
2013-01-02 12:16:00,22.0,14.0,30.16,SSW,193,3.0,7.0,71,0.00,,,0.00,weatherlink.com 1.10,2013-01-02 18:16:00,
2013-01-02 12:31:00,22.4,14.0,30.16,SSW,192,3.0,7.0,71,0.00,,,0.00,weatherlink.com 1.10,2013-01-02 18:31:00,
2013-01-02 12:46:00,22.9,13.0,30.15,SSW,196,2.0,7.0,67,0.00,,,0.00,weatherlink.com 1.10,2013-01-02 18:46:00,
2013-01-02 13:01:00,23.6,13.0,30.14,South,191,3.0,5.0,64,0.00,,,0.00,weatherlink.com 1.10,2013-01-02 19:01:00,
2013-01-02 13:16:00,23.6,12.0,30.14,SSW,198,4.0,6.0,61,0.00,,,0.00,weatherlink.com 1.10,2013-01-02 19:16:00,
2013-01-02 13:31:00,24.2,13.0,30.13,SSW,193,4.0,5.0,62,0.00,,,0.00,weatherlink.com 1.10,2013-01-02 19:31:00,
2013-01-02 13:46:00,24.7,13.0,30.13,SW,218,2.0,4.0,62,0.00,,,0.00,weatherlink.com 1.10,2013-01-02 19:46:00,
2013-01-02 14:01:00,24.3,12.0,30.13,South,190,2.0,6.0,61,0.00,,,0.00,weatherlink.com 1.10,2013-01-02 20:01:00,
2013-01-02 14:16:00,24.4,13.0,30.14,South,179,3.0,3.0,61,0.00,,,0.00,weatherlink.com 1.10,2013-01-02 20:16:00,
2013-01-02 14:31:00,24.2,12.0,30.14,SSE,163,0.0,5.0,61,0.00,,,0.00,weatherlink.com 1.10,2013-01-02 20:31:00,
2013-01-02 14:46:00,24.3,13.0,30.14,South,178,2.0,5.0,62,0.00,,,0.00,weatherlink.com 1.10,2013-01-02 20:46:00,
2013-01-02 15:01:00,24.3,12.0,30.14,South,178,1.0,4.0,61,0.00,,,0.00,weatherlink.com 1.10,2013-01-02 21:01:00,
2013-01-02 15:16:00,24.3,12.0,30.13,SSW,194,3.0,4.0,61,0.00,,,0.00,weatherlink.com 1.10,2013-01-02 21:16:00,
2013-01-02 15:31:00,24.0,12.0,30.13,SSW,197,1.0,5.0,61,0.00,,,0.00,weatherlink.com 1.10,2013-01-02 21:31:00,
2013-01-02 15:46:00,23.6,11.0,30.13,South,185,2.0,5.0,60,0.00,,,0.00,weatherlink.com 1.10,2013-01-02 21:46:00,
2013-01-02 16:01:00,23.3,12.0,30.14,South,191,3.0,4.0,61,0.00,,,0.00,weatherlink.com 1.10,2013-01-02 22:01:00,
2013-01-02 16:16:00,22.9,12.0,30.14,South,188,1.0,3.0,63,0.00,,,0.00,weatherlink.com 1.10,2013-01-02 22:16:00,
2013-01-02 16:31:00,22.4,12.0,30.13,South,183,1.0,2.0,65,0.00,,,0.00,weatherlink.com 1.10,2013-01-02 22:31:00,
2013-01-02 16:46:00,22.2,13.0,30.13,South,183,0.0,3.0,68,0.00,,,0.00,weatherlink.com 1.10,2013-01-02 22:46:00,
2013-01-02 17:01:00,22.1,14.0,30.13,South,183,1.0,1.0,70,0.00,,,0.00,weatherlink.com 1.10,2013-01-02 23:01:00,
2013-01-02 17:16:00,22.2,14.0,30.14,South,183,0.0,1.0,70,0.00,,,0.00,weatherlink.com 1.10,2013-01-02 23:16:00,
2013-01-02 17:31:00,22.4,14.0,30.14,South,183,0.0,1.0,70,0.00,,,0.00,weatherlink.com 1.10,2013-01-02 23:31:00,
2013-01-02 17:46:00,22.5,14.0,30.14,South,183,0.0,0.0,71,0.00,,,0.00,weatherlink.com 1.10,2013-01-02 23:46:00,
2013-01-02 18:01:00,22.6,15.0,30.14,South,183,0.0,0.0,72,0.00,,,0.00,weatherlink.com 1.10,2013-01-03 00:01:00,
2013-01-02 18:16:00,22.3,15.0,30.13,South,183,0.0,0.0,72,0.00,,,0.00,weatherlink.com 1.10,2013-01-03 00:16:00,
2013-01-02 18:31:00,22.2,15.0,30.13,South,183,0.0,1.0,73,0.00,,,0.00,weatherlink.com 1.10,2013-01-03 00:31:00,
2013-01-02 18:46:00,22.3,15.0,30.14,South,183,0.0,2.0,74,0.00,,,0.00,weatherlink.com 1.10,2013-01-03 00:46:00,
2013-01-02 19:01:00,22.7,16.0,30.13,South,183,0.0,2.0,74,0.00,,,0.00,weatherlink.com 1.10,2013-01-03 01:01:00,
2013-01-02 19:16:00,23.1,16.0,30.13,South,183,1.0,2.0,75,0.00,,,0.00,weatherlink.com 1.10,2013-01-03 01:16:00,
2013-01-02 19:32:00,23.3,17.0,30.13,South,183,0.0,1.0,76,0.00,,,0.00,weatherlink.com 1.10,2013-01-03 01:32:00,
2013-01-02 19:47:00,23.7,18.0,30.13,SSW,212,0.0,4.0,77,0.00,,,0.00,weatherlink.com 1.10,2013-01-03 01:47:00,
2013-01-02 20:02:00,23.9,18.0,30.12,SSW,212,0.0,3.0,78,0.00,,,0.00,weatherlink.com 1.10,2013-01-03 02:02:00,
2013-01-02 20:17:00,24.0,18.0,30.12,SW,231,2.0,3.0,78,0.00,,,0.00,weatherlink.com 1.10,2013-01-03 02:17:00,
2013-01-02 20:32:00,24.0,18.0,30.12,SW,231,0.0,3.0,79,0.00,,,0.00,weatherlink.com 1.10,2013-01-03 02:32:00,
2013-01-02 20:47:00,23.9,19.0,30.12,SW,231,1.0,3.0,80,0.00,,,0.00,weatherlink.com 1.10,2013-01-03 02:47:00,
2013-01-02 21:02:00,23.9,19.0,30.11,SW,229,0.0,2.0,81,0.00,,,0.00,weatherlink.com 1.10,2013-01-03 03:02:00,
2013-01-02 21:17:00,23.9,19.0,30.11,SSW,211,0.0,2.0,82,0.00,,,0.00,weatherlink.com 1.10,2013-01-03 03:17:00,
2013-01-02 21:32:00,23.8,19.0,30.11,WSW,246,0.0,4.0,82,0.00,,,0.00,weatherlink.com 1.10,2013-01-03 03:32:00,
2013-01-02 21:47:00,23.8,19.0,30.11,SW,224,4.0,5.0,83,0.00,,,0.00,weatherlink.com 1.10,2013-01-03 03:47:00,
2013-01-02 22:02:00,23.8,19.0,30.11,SW,214,1.0,4.0,83,0.00,,,0.00,weatherlink.com 1.10,2013-01-03 04:02:00,
2013-01-02 22:17:00,23.8,20.0,30.11,SW,227,2.0,3.0,84,0.00,,,0.00,weatherlink.com 1.10,2013-01-03 04:17:00,
2013-01-02 22:32:00,23.8,20.0,30.11,SW,227,1.0,3.0,84,0.00,,,0.00,weatherlink.com 1.10,2013-01-03 04:32:00,
2013-01-02 22:47:00,23.8,20.0,30.11,SW,219,2.0,5.0,85,0.00,,,0.00,weatherlink.com 1.10,2013-01-03 04:47:00,
2013-01-02 23:17:00,23.9,20.0,30.11,SW,221,0.0,4.0,85,0.00,,,0.00,weatherlink.com 1.10,2013-01-03 05:17:00,
2013-01-02 23:32:00,23.8,20.0,30.11,SW,221,1.0,2.0,85,0.00,,,0.00,weatherlink.com 1.10,2013-01-03 05:32:00,
2013-01-02 23:47:00,23.7,20.0,30.11,SW,221,1.0,2.0,86,0.00,,,0.00,weatherlink.com 1.10,2013-01-03 05:47:00,